TimeCST,TemperatureF,Dew PointF,Humidity,Sea Level PressureIn,VisibilityMPH,Wind Direction,Wind SpeedMPH,Gust SpeedMPH,PrecipitationIn,Events,Conditions,WindDirDegrees,DateUTC
12:53 AM,19.9,9.0,62,30.11,10.0,NW,16.1,25.3,N/A,,Overcast,320,2012-12-10 06:53:00
1:53 AM,19.0,9.0,65,30.10,10.0,NW,16.1,20.7,N/A,,Overcast,320,2012-12-10 07:53:00
2:53 AM,19.0,8.1,62,30.10,10.0,NW,18.4,24.2,N/A,,Mostly Cloudy,320,2012-12-10 08:53:00
3:22 AM,17.6,8.6,68,30.06,10.0,NW,17.3,-,N/A,,Mostly Cloudy,320,2012-12-10 09:22:00
3:50 AM,19.4,6.8,58,30.06,10.0,NNW,18.4,25.3,N/A,,Overcast,330,2012-12-10 09:50:00
3:53 AM,19.0,7.0,59,30.09,10.0,NW,15.0,25.3,N/A,,Overcast,320,2012-12-10 09:53:00
4:53 AM,19.0,7.0,59,30.09,10.0,NW,16.1,-,N/A,,Overcast,320,2012-12-10 10:53:00
5:53 AM,17.1,6.1,62,30.12,10.0,NW,15.0,-,N/A,,Overcast,310,2012-12-10 11:53:00
6:53 AM,17.1,6.1,62,30.13,10.0,NW,12.7,-,N/A,,Overcast,320,2012-12-10 12:53:00
7:53 AM,16.0,5.0,62,30.14,10.0,WNW,11.5,-,N/A,,Overcast,300,2012-12-10 13:53:00
8:53 AM,16.0,5.0,62,30.16,10.0,NW,15.0,-,N/A,,Overcast,310,2012-12-10 14:53:00
9:53 AM,16.0,5.0,62,30.17,10.0,NW,11.5,-,N/A,,Overcast,320,2012-12-10 15:53:00
10:53 AM,18.0,5.0,57,30.15,10.0,West,5.8,-,N/A,,Overcast,260,2012-12-10 16:53:00
11:21 AM,19.4,6.8,58,30.10,10.0,WNW,6.9,-,N/A,,Scattered Clouds,290,2012-12-10 17:21:00
11:53 AM,21.9,8.1,55,30.13,10.0,West,5.8,-,N/A,,Mostly Cloudy,270,2012-12-10 17:53:00
12:53 PM,25.0,10.0,53,30.09,10.0,West,5.8,-,N/A,,Scattered Clouds,270,2012-12-10 18:53:00
1:53 PM,28.9,3.9,35,30.07,10.0,West,9.2,-,N/A,,Clear,260,2012-12-10 19:53:00
2:53 PM,30.0,3.0,32,30.04,10.0,West,6.9,-,N/A,,Clear,280,2012-12-10 20:53:00
3:53 PM,30.0,1.9,30,30.04,10.0,West,6.9,-,N/A,,Clear,260,2012-12-10 21:53:00
4:53 PM,27.0,3.9,37,30.03,10.0,SSW,4.6,-,N/A,,Clear,210,2012-12-10 22:53:00
5:53 PM,24.1,7.0,48,30.04,10.0,SSW,5.8,-,N/A,,Clear,200,2012-12-10 23:53:00
6:53 PM,21.0,6.1,53,30.04,10.0,SSE,5.8,-,N/A,,Clear,160,2012-12-11 00:53:00
7:53 PM,19.9,7.0,57,30.05,10.0,South,3.5,-,N/A,,Clear,190,2012-12-11 01:53:00
8:53 PM,19.0,7.0,59,30.05,10.0,SSE,3.5,-,N/A,,Clear,150,2012-12-11 02:53:00
9:53 PM,19.0,7.0,59,30.05,10.0,SE,3.5,-,N/A,,Clear,140,2012-12-11 03:53:00
10:53 PM,17.1,7.0,65,30.04,10.0,SE,3.5,-,N/A,,Clear,140,2012-12-11 04:53:00
11:53 PM,17.1,7.0,65,30.03,10.0,South,3.5,-,N/A,,Clear,170,2012-12-11 05:53:00